Vertical_Velocity
4 2 -2 -6 -4 -1 1 -0 0 1 2 3 6 10 15 20 24 25 26 25 22 20 18 17 16 15 12 9 7 7 8 9 2 -3 -6 -3 0 2 2 1 0 0 1 1 1 0 0 0 1 1 1 1 1 2 2 3 4 4 3 3 3 4 4 4 3 2 1 0 0
-2 -3 -3 -3 -1 0 1 1 6 8 9 8 9 11 13 14 15 15 15 15 14 14 15 17 19 20 18 14 12 13 15 14 6 1 -1 1 3 4 4 2 1 2 2 1 -0 -1 -1 0 1 1 1 1 2 2 2 2 4 4 3 3 3 4 5 4 2 1 1 2 1
-1 -0 -0 -1 -1 -0 1 4 11 14 15 12 10 9 8 6 6 6 6 7 7 7 8 9 13 16 17 17 18 22 24 23 16 12 10 9 9 7 5 3 3 3 1 -0 -1 -1 -0 0 1 1 2 2 2 2 2 2 3 4 4 3 4 5 5 2 1 1 2 3 2
0 0 -1 -2 -1 0 3 10 15 16 15 12 9 7 5 4 4 3 3 3 3 2 2 3 4 6 7 9 13 18 24 26 23 20 16 13 10 8 5 4 4 2 0 -1 -1 -0 0 1 2 2 2 2 2 2 1 2 3 4 4 3 5 4 3 1 2 3 3 3 2
-2 -2 -2 -0 1 4 8 15 15 12 9 7 5 3 2 2 3 3 3 1 -0 0 1 2 1 2 2 2 3 7 11 15 17 16 14 11 9 8 6 3 1 0 0 1 1 1 2 2 2 1 1 1 1 1 1 1 3 3 3 4 4 3 2 2 3 3 3 3 2
-3 -2 0 2 2 4 9 13 8 4 2 1 0 -0 0 1 2 2 2 1 0 1 1 1 1 1 1 1 1 2 3 3 6 9 10 9 9 7 5 1 -1 0 1 3 3 3 2 1 1 1 0 1 1 0 0 1 2 3 3 3 2 2 2 3 3 3 3 3 1
-2 -0 2 1 -2 -0 3 5 2 -0 -1 -2 -2 -2 -1 -0 0 1 2 2 1 0 -1 -0 1 1 1 1 2 3 3 2 3 5 6 7 6 4 2 0 0 2 3 3 3 2 1 1 1 1 1 1 0 -1 -1 1 2 3 3 2 1 2 3 2 3 3 3 2 1
2 2 1 -2 -3 -1 0 1 1 0 -0 -1 -1 -1 -1 0 1 1 2 3 1 1 1 2 2 2 2 1 2 2 2 2 2 2 2 2 2 1 0 0 1 1 2 2 2 1 1 1 1 1 1 1 -0 -1 -1 1 3 4 3 2 1 2 3 2 3 3 2 1 0
2 1 -1 -3 0 2 3 4 4 4 2 1 0 0 0 0 1 1 2 2 2 2 2 1 0 1 1 0 0 0 -0 -0 -0 -1 -1 -1 -1 -1 -1 -1 -0 -0 0 1 1 1 1 2 1 1 0 0 -1 -1 0 4 5 4 2 1 1 2 2 2 2 1 1 1 -0
-3 -4 -4 -2 2 4 6 8 8 6 4 2 1 0 -0 -1 -1 -1 -0 -0 0 -1 -3 -4 -3 -2 -2 -2 -2 -2 -2 -2 -2 -2 -2 -3 -3 -3 -2 -2 -1 -0 0 1 2 2 2 2 1 0 -1 -0 -0 1 3 6 5 3 1 1 1 1 1 1 1 1 0 0 0
-5 -5 -4 -1 1 4 6 9 7 6 5 3 1 0 -1 -1 -1 -1 -2 -2 -4 -6 -7 -6 -5 -4 -4 -2 -2 -2 -2 -2 -2 -3 -3 -4 -4 -3 -2 -2 -0 1 2 2 3 3 4 4 2 1 0 1 2 3 4 4 3 2 1 1 1 1 1 1 1 0 -0 -0 0
-5 -5 -3 -1 0 2 4 5 4 4 3 3 1 -0 -1 -1 -1 -1 -2 -3 -5 -6 -7 -6 -6 -5 -3 -2 -2 -2 -2 -2 -2 -3 -3 -3 -3 -2 -1 -0 1 2 3 3 3 3 3 3 2 2 2 4 5 5 4 2 1 1 2 2 2 2 1 0 0 -0 -0 -0 0
-6 -5 -4 -3 -2 0 2 1 0 -0 0 0 -1 -1 -1 -1 -2 -2 -2 -2 -3 -4 -4 -4 -3 -2 -1 -0 -0 -0 -1 -1 -2 -2 -2 -2 -2 -1 -0 1 1 2 2 2 2 2 2 1 1 1 1 2 4 6 6 3 1 1 2 3 3 2 1 0 0 0 0 0 -0
-6 -6 -5 -4 -2 -1 -1 -2 -4 -5 -4 -2 -1 -1 -1 -2 -3 -4 -3 -3 -3 -3 -2 -2 -1 1 1 1 1 1 0 -0 -1 -1 -1 -1 -1 -0 0 0 1 1 1 1 1 1 1 1 1 1 1 1 3 6 7 5 2 2 3 3 3 2 1 1 1 1 0 0 -0
-5 -5 -4 -3 -2 -2 -3 -5 -7 -8 -6 -3 -1 -0 -1 -3 -5 -6 -5 -5 -4 -3 -2 -1 0 1 1 1 1 1 0 0 0 0 0 1 1 0 -0 0 1 1 1 1 1 1 1 1 0 1 2 4 5 7 8 5 2 2 3 3 2 2 2 1 1 1 1 0 -0
-4 -4 -4 -3 -2 -2 -2 -4 -6 -7 -6 -3 -2 -1 -2 -5 -7 -7 -7 -7 -6 -3 -1 1 2 1 0 -0 -0 -0 0 1 3 4 4 5 3 2 1 1 1 1 2 2 3 4 3 3 1 2 4 8 9 9 8 4 2 2 3 3 3 3 3 2 2 2 1 0 1
-3 -4 -4 -4 -3 -2 -2 -1 -1 -1 -2 -2 -3 -4 -5 -6 -7 -7 -7 -6 -4 -2 -0 1 2 1 -0 -1 -1 0 2 5 6 7 7 6 5 4 3 2 3 3 4 6 8 9 9 7 5 4 5 9 10 10 8 4 2 2 3 4 4 4 3 3 3 3 3 2 1
0 -1 -4 -5 -5 -4 -2 -1 1 2 1 -1 -3 -4 -5 -5 -5 -5 -3 -2 -1 -1 -0 -0 1 0 -1 -2 0 2 4 6 5 4 4 3 3 2 2 2 4 6 8 10 11 11 9 7 5 5 5 8 9 8 6 3 3 3 4 4 4 4 3 3 3 5 6 6 3
3 1 -2 -6 -6 -5 -4 -2 -0 1 1 1 1 1 0 -0 0 1 2 3 3 2 1 1 1 1 0 0 1 2 2 2 1 0 -0 -1 -1 -1 0 3 7 10 11 11 10 8 6 4 4 4 5 6 6 6 5 3 3 4 4 4 4 3 3 3 3 5 6 6 4
2 2 0 -3 -5 -4 -3 -2 -0 1 1 2 5 6 6 5 6 7 7 7 7 6 4 3 3 4 6 6 5 3 2 1 0 -0 -1 -2 -2 -2 -0 3 9 11 11 9 7 6 5 5 5 5 5 5 5 4 3 3 3 3 3 3 3 3 3 4 4 4 4 4 4
1 1 1 0 -1 -0 1 2 2 2 1 2 5 7 8 8 9 10 10 11 10 9 8 7 7 8 9 11 9 7 4 2 1 0 -1 -2 -1 0 2 6 9 10 9 7 5 5 5 5 5 4 4 4 3 3 2 2 2 1 1 1 2 2 3 3 3 3 2 2 2
3 3 3 3 4 5 6 7 5 3 2 2 4 6 8 10 10 11 12 13 12 11 10 10 9 9 10 10 9 8 5 3 1 0 0 -0 2 4 7 9 11 11 9 7 4 4 4 4 3 3 3 2 2 2 2 1 1 1 1 1 1 1 1 2 3 3 3 3 4
9 8 7 7 8 9 10 9 8 6 4 2 3 5 8 10 11 11 12 12 12 11 10 9 8 8 7 8 7 6 5 3 3 3 3 2 4 6 9 10 11 11 10 8 6 5 4 4 2 1 0 0 2 2 2 1 0 0 -0 -0 -0 -1 -1 0 1 2 2 2 2
14 13 12 12 13 13 12 11 10 9 8 7 6 6 7 9 10 11 12 11 11 10 9 8 6 5 5 5 5 5 4 4 5 5 5 4 4 5 7 8 9 9 9 8 7 7 6 5 4 2 1 1 1 1 1 0 -0 -0 -1 -1 -1 -1 -0 1 1 2 2 1 0
15 14 14 15 15 16 15 14 13 13 12 11 9 8 7 7 8 9 10 11 10 9 8 7 6 4 3 3 3 3 3 4 4 4 4 4 3 3 4 5 6 7 8 8 8 8 8 8 7 6 5 4 4 3 3 3 3 3 3 3 3 4 4 5 5 5 6 5 5
15 14 13 14 15 16 15 15 14 14 13 11 10 8 7 6 6 7 8 9 9 8 7 6 5 4 3 3 2 2 2 2 2 3 3 3 3 3 3 3 4 5 7 8 9 9 9 9 9 9 8 7 6 5 5 5 6 7 8 8 8 8 8 7 6 6 5 5 5
14 12 11 12 13 14 14 13 12 11 10 9 8 7 6 6 6 6 7 7 7 7 6 5 5 4 3 3 3 2 2 1 1 1 1 2 3 4 5 5 4 5 6 8 10 10 10 9 9 9 8 7 7 6 6 6 7 8 8 8 8 6 5 4 3 3 2 2 3
12 11 10 11 12 13 13 12 10 9 7 6 6 6 6 6 6 6 7 7 6 6 6 5 5 4 4 4 4 3 3 2 1 1 1 2 3 4 5 6 6 7 8 8 9 9 8 7 6 6 6 4 4 4 4 5 5 5 5 4 3 2 2 1 1 1 1 1 0
12 11 10 10 10 10 10 9 8 7 6 5 5 5 5 5 6 6 6 7 7 7 7 6 5 5 5 5 5 5 4 4 3 2 2 2 3 3 4 6 7 7 8 7 6 6 6 5 4 4 3 2 2 2 2 2 2 2 2 1 1 0 -0 -1 -1 -1 -1 -0 -0
12 11 9 7 7 6 6 6 6 6 6 5 5 6 6 6 6 5 6 6 6 6 6 6 5 5 5 5 5 5 4 4 3 2 2 2 2 2 2 3 4 5 5 5 4 4 4 4 4 4 3 3 2 2 2 2 2 1 1 0 -0 -1 -1 -1 -2 -2 -1 -1 0
10 9 7 5 4 3 3 3 3 3 4 5 5 6 6 6 6 5 5 5 5 5 4 4 4 4 4 4 3 2 2 1 1 1 1 1 0 0 0 1 2 3 3 3 3 3 3 3 4 4 4 4 3 3 2 2 1 1 0 -0 -0 -1 -1 -1 -1 -1 -1 -0 1
8 7 6 5 4 3 3 2 2 2 2 3 3 4 4 4 4 4 4 4 4 3 3 3 3 3 3 3 1 0 -1 -2 -1 -1 -0 -0 -0 0 1 2 2 3 3 3 4 4 4 4 4 4 4 4 3 2 2 1 1 0 0 0 0 -0 -0 -0 -1 -1 -0 -0 0
7 6 6 5 5 5 4 4 3 2 2 2 2 2 3 3 3 4 4 4 4 3 3 3 2 2 1 1 -0 -1 -2 -3 -3 -2 -1 -1 1 3 4 4 4 4 4 5 5 5 5 5 4 4 3 2 2 1 1 1 1 1 1 0 0 -0 -0 -1 -1 -1 -1 -1 -0
5 5 5 5 5 5 5 5 4 4 3 2 2 3 3 4 4 5 5 6 6 6 6 6 5 4 3 2 1 0 -1 -2 -1 -0 1 3 6 7 7 6 5 5 5 6 6 6 5 5 4 3 2 1 1 1 1 1 1 1 1 -0 -1 -1 -1 -1 -1 -1 -1 -1 -1
4 4 5 5 5 4 4 4 4 3 3 3 3 4 4 5 6 7 7 8 8 8 8 9 9 9 9 9 8 5 3 2 3 4 6 9 10 10 9 8 6 5 6 6 6 5 5 4 4 3 3 3 3 3 2 2 1 0 -0 -1 -1 -1 -1 -1 -1 -1 -1 -1 -0
5 5 5 4 4 3 3 3 2 2 3 3 3 4 4 5 6 7 7 7 7 7 8 8 9 10 11 12 12 10 8 5 5 7 9 11 13 14 13 11 7 5 5 5 5 5 5 6 6 6 5 5 5 4 3 2 0 -1 -1 -1 -1 -1 -1 -1 -1 -1 -1 -1 -1
5 4 4 4 4 3 3 3 3 2 2 2 3 3 3 4 5 6 6 6 6 6 5 5 5 6 7 9 9 9 9 8 6 7 8 10 13 16 17 15 9 5 4 5 5 6 6 6 6 6 6 5 4 3 2 0 -0 -1 -1 -1 -1 -1 -1 -1 -1 -1 -1 -1 -1
3 3 3 3 4 4 4 3 3 2 2 2 2 2 3 3 3 4 4 4 4 3 3 3 3 3 3 4 5 6 7 7 7 6 6 7 10 13 15 13 8 4 3 4 5 5 5 5 4 4 3 3 2 1 0 -1 -1 -1 -1 -1 -1 -1 -1 -1 -1 -0 0 0 1
0 0 1 1 2 2 2 2 2 1 1 1 1 1 1 2 2 2 2 1 1 0 0 0 0 1 1 1 2 3 5 5 5 5 4 4 6 7 7 6 3 2 2 3 4 4 3 2 2 1 1 1 0 0 -0 -1 -1 -1 -1 -1 -1 -1 -1 -1 0 1 1 1 1
-2 -2 -2 -1 -1 -0 0 0 0 -0 -1 -1 -1 -1 -0 -0 -0 0 -0 -0 -1 -1 -2 -2 -1 -1 -1 -0 1 1 2 3 2 1 1 2 3 3 2 1 1 1 1 2 2 2 1 1 1 1 1 1 1 0 0 -0 0 0 0 -0 -0 0 0 1 1 1 1 1 1
-3 -3 -3 -3 -3 -2 -2 -1 -1 -1 -1 -1 -1 -1 -1 -1 -1 -1 -2 -2 -2 -2 -1 -1 -1 -1 -1 -1 -0 0 0 -0 -1 -1 -0 1 1 1 0 0 0 0 0 0 1 1 1 1 1 1 1 1 1 1 1 1 1 1 1 0 1 1 2 2 2 1 1 1 0
Height
5632 5636 5639 5646 5653 5659 5664 5668 5673 5676 5679 5682 5685 5688 5690 5692 5693 5695 5697 5700 5703 5705 5708 5709 5711 5712 5713 5714 5715 5716 5718 5719 5719 5719 5720 5723 5724 5725 5727 5729 5731 5733 5734 5735 5736 5737 5738 5739 5740 5741 5743 5743 5744 5745 5746 5747 5748 5749 5751 5752 5753 5753 5754 5754 5755 5756 5758 5759 5761
5630 5634 5639 5646 5652 5658 5662 5667 5671 5674 5677 5679 5682 5684 5686 5688 5689 5690 5692 5694 5697 5700 5703 5706 5708 5710 5711 5712 5713 5714 5715 5716 5715 5715 5715 5717 5719 5721 5724 5726 5728 5729 5731 5732 5733 5734 5735 5736 5737 5738 5739 5740 5741 5742 5743 5744 5746 5747 5748 5749 5749 5750 5750 5751 5753 5754 5756 5757 5758
5630 5635 5640 5646 5652 5657 5661 5666 5669 5671 5673 5676 5678 5681 5683 5684 5686 5688 5690 5692 5694 5697 5699 5702 5704 5706 5708 5709 5711 5712 5713 5713 5713 5712 5713 5714 5716 5719 5721 5723 5725 5726 5728 5728 5729 5731 5732 5733 5733 5734 5736 5737 5738 5739 5740 5741 5743 5744 5744 5745 5746 5746 5747 5748 5750 5752 5753 5754 5755
5631 5636 5640 5646 5651 5656 5660 5664 5667 5669 5671 5673 5675 5678 5680 5682 5683 5685 5688 5690 5692 5695 5697 5698 5700 5702 5703 5705 5707 5708 5710 5711 5712 5712 5713 5714 5716 5718 5719 5721 5722 5723 5724 5725 5726 5728 5728 5729 5730 5731 5733 5733 5735 5736 5737 5738 5739 5740 5740 5741 5742 5743 5744 5746 5748 5749 5750 5751 5752
5632 5636 5640 5645 5651 5655 5660 5663 5666 5668 5669 5671 5673 5675 5677 5679 5681 5683 5685 5688 5691 5693 5694 5696 5697 5698 5699 5700 5701 5703 5705 5708 5710 5711 5712 5713 5715 5716 5717 5718 5719 5721 5722 5723 5723 5724 5725 5726 5727 5728 5729 5730 5732 5733 5734 5735 5735 5736 5736 5737 5738 5740 5742 5744 5745 5746 5747 5748 5749
5632 5636 5640 5645 5649 5654 5658 5662 5664 5665 5667 5668 5670 5673 5674 5677 5678 5681 5683 5686 5688 5690 5691 5693 5693 5694 5695 5696 5697 5698 5701 5703 5706 5708 5710 5711 5713 5714 5715 5716 5717 5718 5719 5719 5720 5721 5722 5723 5724 5725 5726 5727 5728 5729 5730 5731 5731 5732 5733 5735 5737 5739 5740 5741 5742 5743 5744 5745 5746
5633 5636 5639 5643 5648 5653 5657 5659 5662 5663 5664 5666 5668 5670 5673 5674 5676 5678 5680 5683 5685 5687 5688 5689 5690 5691 5692 5693 5694 5696 5698 5700 5703 5705 5707 5708 5709 5711 5712 5713 5714 5715 5716 5717 5718 5718 5719 5720 5721 5722 5723 5724 5725 5726 5726 5727 5728 5729 5732 5734 5736 5737 5738 5738 5739 5740 5741 5742 5743
5633 5635 5638 5642 5647 5651 5654 5658 5659 5661 5662 5664 5666 5668 5671 5673 5674 5676 5678 5680 5682 5684 5685 5687 5688 5689 5690 5691 5692 5693 5695 5697 5699 5701 5703 5704 5706 5708 5709 5710 5711 5712 5713 5713 5714 5715 5716 5717 5718 5719 5720 5721 5722 5722 5723 5724 5726 5728 5731 5732 5733 5734 5735 5735 5736 5737 5738 5738 5739
5632 5634 5638 5642 5646 5649 5652 5655 5657 5658 5660 5662 5664 5667 5668 5671 5673 5674 5676 5678 5680 5682 5683 5684 5685 5686 5687 5688 5689 5691 5693 5694 5696 5698 5700 5701 5703 5704 5706 5707 5708 5709 5710 5710 5711 5712 5713 5714 5715 5716 5717 5718 5719 5719 5720 5722 5725 5727 5728 5729 5730 5731 5732 5732 5733 5734 5735 5735 5736
5632 5635 5638 5642 5645 5648 5650 5652 5654 5657 5659 5661 5663 5665 5667 5669 5670 5672 5674 5675 5677 5679 5681 5682 5683 5684 5685 5686 5687 5688 5690 5692 5693 5695 5697 5698 5700 5701 5703 5703 5705 5706 5706 5707 5708 5709 5710 5711 5712 5713 5714 5715 5716 5717 5718 5721 5723 5724 5725 5726 5727 5728 5729 5729 5730 5731 5732 5733 5733
5632 5635 5638 5641 5643 5646 5648 5650 5653 5655 5658 5660 5662 5663 5665 5667 5668 5670 5672 5673 5675 5677 5678 5680 5681 5682 5683 5684 5685 5686 5688 5689 5691 5693 5694 5696 5697 5698 5699 5700 5701 5702 5703 5704 5705 5706 5707 5708 5709 5710 5712 5713 5714 5715 5717 5718 5720 5721 5722 5723 5724 5725 5726 5727 5728 5728 5729 5730 5731
5633 5636 5638 5641 5643 5645 5648 5650 5652 5654 5657 5659 5661 5662 5664 5665 5667 5668 5670 5672 5674 5675 5676 5678 5679 5680 5681 5682 5683 5684 5686 5687 5688 5690 5692 5693 5694 5695 5696 5697 5698 5699 5700 5701 5702 5703 5704 5706 5707 5708 5709 5711 5713 5713 5714 5715 5716 5718 5719 5720 5721 5722 5723 5724 5725 5725 5726 5727 5728
5633 5636 5638 5641 5643 5645 5647 5649 5652 5654 5656 5658 5660 5661 5663 5663 5665 5667 5669 5671 5673 5674 5675 5677 5678 5678 5679 5681 5682 5683 5684 5685 5686 5688 5689 5690 5691 5692 5693 5694 5695 5696 5697 5698 5700 5701 5702 5703 5704 5705 5706 5707 5709 5711 5712 5713 5713 5715 5716 5718 5719 5720 5720 5721 5722 5723 5724 5725 5726
5633 5635 5638 5640 5642 5644 5647 5649 5652 5654 5656 5657 5659 5660 5661 5662 5663 5665 5668 5670 5672 5674 5675 5675 5676 5677 5678 5679 5680 5681 5682 5683 5684 5685 5686 5687 5688 5689 5690 5691 5693 5694 5695 5696 5697 5698 5699 5700 5701 5702 5703 5704 5705 5707 5710 5711 5711 5712 5713 5715 5716 5717 5718 5718 5719 5720 5721 5722 5723
5632 5634 5636 5639 5641 5644 5646 5649 5651 5653 5655 5656 5657 5658 5659 5660 5662 5664 5667 5669 5671 5673 5674 5674 5674 5675 5676 5677 5678 5679 5680 5681 5682 5683 5684 5685 5686 5687 5688 5689 5690 5691 5692 5693 5695 5696 5697 5698 5698 5700 5701 5702 5703 5705 5707 5708 5708 5709 5711 5712 5713 5714 5715 5716 5717 5718 5718 5719 5720
5631 5633 5636 5639 5641 5643 5646 5648 5650 5652 5653 5654 5655 5657 5658 5659 5661 5663 5666 5668 5670 5672 5673 5672 5672 5673 5673 5674 5676 5677 5678 5679 5681 5682 5683 5684 5684 5685 5686 5688 5688 5689 5690 5691 5693 5695 5696 5696 5697 5698 5700 5701 5702 5703 5705 5706 5706 5706 5708 5709 5710 5711 5712 5713 5714 5715 5716 5717 5718
5631 5633 5636 5638 5640 5643 5645 5647 5648 5650 5652 5654 5656 5657 5658 5659 5661 5663 5665 5667 5668 5669 5670 5670 5671 5671 5671 5672 5674 5676 5677 5678 5680 5681 5681 5682 5683 5685 5686 5687 5687 5688 5689 5690 5692 5693 5694 5695 5695 5695 5696 5698 5700 5702 5703 5702 5703 5704 5705 5706 5707 5708 5709 5710 5711 5712 5713 5714 5715
5633 5634 5635 5637 5640 5643 5645 5648 5648 5650 5652 5653 5655 5656 5657 5658 5660 5662 5663 5664 5665 5666 5666 5668 5670 5670 5670 5671 5673 5674 5674 5675 5677 5678 5678 5679 5681 5683 5683 5684 5685 5687 5688 5689 5690 5690 5691 5691 5692 5693 5694 5695 5697 5699 5700 5700 5700 5701 5703 5704 5705 5706 5707 5708 5709 5710 5711 5713 5713
5633 5635 5636 5638 5640 5643 5646 5648 5649 5650 5651 5653 5655 5656 5657 5658 5659 5659 5660 5661 5662 5662 5663 5665 5667 5668 5669 5669 5670 5671 5673 5674 5674 5675 5677 5678 5678 5680 5681 5682 5686 5688 5688 5687 5686 5687 5687 5688 5689 5690 5691 5693 5694 5696 5697 5697 5698 5699 5700 5702 5703 5703 5704 5705 5706 5708 5709 5711 5712
5633 5635 5637 5638 5641 5643 5645 5647 5648 5649 5650 5652 5655 5656 5658 5658 5659 5659 5659 5660 5660 5661 5661 5662 5665 5668 5670 5671 5671 5671 5671 5673 5673 5674 5675 5676 5677 5678 5679 5681 5684 5686 5685 5684 5683 5684 5685 5685 5686 5688 5688 5690 5691 5693 5694 5694 5695 5696 5698 5699 5700 5701 5702 5703 5704 5705 5706 5707 5708
5633 5635 5637 5639 5641 5643 5645 5646 5647 5648 5650 5651 5653 5655 5656 5657 5658 5658 5659 5659 5659 5660 5661 5662 5664 5667 5669 5670 5671 5671 5671 5671 5672 5673 5673 5674 5675 5677 5679 5682 5682 5682 5682 5682 5682 5682 5683 5683 5684 5685 5686 5687 5688 5689 5690 5691 5692 5693 5694 5696 5697 5698 5699 5700 5701 5701 5702 5703 5704
5630 5633 5636 5638 5640 5642 5644 5646 5646 5647 5648 5649 5651 5652 5653 5654 5655 5657 5658 5658 5659 5660 5660 5661 5662 5663 5665 5667 5668 5669 5669 5669 5670 5671 5672 5673 5675 5677 5679 5681 5682 5682 5681 5680 5679 5679 5680 5681 5681 5682 5683 5684 5685 5686 5687 5688 5689 5690 5692 5693 5694 5695 5696 5697 5698 5699 5700 5702 5703
5628 5631 5634 5637 5639 5641 5643 5644 5645 5646 5647 5648 5649 5649 5650 5651 5652 5653 5655 5657 5658 5658 5659 5659 5660 5661 5662 5663 5665 5666 5667 5668 5668 5670 5671 5673 5675 5678 5679 5680 5680 5680 5680 5678 5679 5680 5680 5679 5679 5680 5680 5681 5682 5683 5684 5685 5687 5688 5688 5689 5691 5691 5692 5693 5695 5697 5698 5699 5699
5628 5630 5633 5635 5637 5638 5640 5641 5643 5644 5645 5646 5647 5648 5649 5649 5650 5651 5652 5653 5654 5655 5656 5657 5658 5659 5660 5661 5662 5663 5664 5666 5667 5668 5669 5671 5672 5674 5675 5676 5677 5677 5677 5677 5678 5678 5678 5678 5678 5678 5678 5679 5680 5681 5682 5683 5683 5684 5686 5687 5688 5689 5690 5691 5693 5695 5695 5696 5696
5629 5631 5632 5634 5636 5637 5638 5640 5641 5642 5643 5644 5645 5646 5647 5648 5649 5650 5651 5652 5652 5653 5654 5655 5656 5657 5658 5659 5660 5661 5663 5663 5664 5665 5667 5668 5669 5670 5671 5672 5672 5673 5673 5673 5674 5675 5675 5675 5676 5676 5677 5678 5679 5680 5681 5682 5683 5684 5684 5685 5686 5687 5688 5690 5691 5692 5693 5693 5694
5627 5629 5631 5632 5634 5636 5637 5638 5639 5640 5640 5642 5643 5644 5645 5646 5647 5648 5649 5650 5651 5651 5652 5653 5653 5654 5655 5656 5658 5659 5660 5662 5662 5663 5664 5665 5666 5668 5668 5668 5669 5669 5670 5670 5671 5672 5673 5674 5674 5675 5675 5676 5677 5678 5679 5680 5681 5682 5682 5683 5684 5685 5686 5686 5687 5688 5689 5689 5690
5626 5627 5628 5630 5631 5633 5634 5635 5637 5638 5638 5639 5640 5642 5643 5643 5645 5646 5647 5648 5649 5650 5650 5650 5651 5652 5653 5654 5655 5656 5657 5658 5659 5660 5661 5663 5664 5665 5666 5666 5666 5667 5668 5668 5669 5670 5671 5672 5673 5673 5674 5674 5675 5676 5677 5677 5678 5678 5679 5680 5680 5681 5681 5682 5682 5683 5684 5685 5685
5624 5626 5627 5628 5629 5630 5631 5632 5633 5634 5636 5637 5638 5639 5640 5641 5642 5643 5644 5645 5646 5647 5648 5648 5648 5650 5651 5653 5654 5654 5655 5655 5656 5657 5658 5660 5661 5662 5663 5663 5663 5663 5665 5666 5666 5666 5667 5668 5669 5670 5670 5671 5671 5672 5672 5673 5673 5674 5675 5675 5676 5676 5677 5678 5678 5679 5680 5681 5681
5622 5623 5625 5626 5627 5628 5628 5629 5630 5631 5633 5634 5636 5638 5639 5639 5640 5641 5642 5643 5643 5644 5645 5645 5646 5648 5649 5650 5651 5652 5653 5654 5654 5655 5656 5657 5658 5659 5659 5660 5661 5661 5662 5662 5662 5662 5662 5662 5663 5664 5665 5665 5666 5667 5668 5668 5669 5670 5671 5672 5672 5673 5673 5674 5674 5675 5676 5677 5678
5620 5622 5623 5623 5624 5626 5627 5628 5629 5630 5631 5632 5633 5635 5636 5637 5638 5639 5641 5641 5642 5642 5642 5643 5644 5645 5646 5647 5648 5649 5651 5652 5652 5653 5653 5654 5655 5655 5656 5657 5657 5657 5658 5658 5657 5657 5657 5658 5658 5659 5660 5661 5662 5663 5664 5665 5666 5667 5668 5668 5669 5669 5670 5670 5671 5672 5672 5673 5673
5619 5620 5621 5622 5623 5624 5625 5626 5627 5628 5629 5630 5631 5632 5633 5634 5635 5637 5638 5639 5640 5640 5641 5641 5642 5643 5643 5644 5646 5647 5648 5648 5649 5650 5651 5651 5651 5652 5652 5653 5653 5654 5654 5654 5653 5653 5654 5654 5655 5656 5657 5658 5658 5660 5661 5662 5663 5664 5665 5665 5666 5667 5667 5668 5668 5668 5669 5670 5670
5618 5618 5620 5621 5622 5623 5623 5624 5625 5626 5627 5628 5629 5630 5631 5632 5633 5634 5635 5636 5637 5638 5638 5639 5640 5641 5642 5642 5643 5643 5644 5645 5646 5646 5647 5648 5648 5648 5649 5650 5651 5651 5651 5651 5651 5651 5651 5652 5653 5653 5654 5655 5656 5657 5658 5659 5660 5661 5662 5663 5663 5664 5664 5665 5665 5666 5667 5668 5668
5616 5617 5618 5619 5620 5621 5622 5623 5623 5624 5625 5626 5627 5628 5629 5630 5631 5632 5633 5633 5634 5634 5635 5636 5636 5637 5638 5638 5639 5640 5640 5641 5642 5642 5643 5644 5645 5646 5647 5647 5648 5648 5648 5649 5649 5650 5650 5651 5651 5652 5652 5653 5653 5655 5656 5657 5658 5658 5659 5660 5661 5661 5662 5663 5663 5664 5665 5665 5666
5616 5617 5617 5618 5618 5619 5620 5621 5622 5623 5623 5624 5625 5626 5627 5628 5629 5630 5630 5631 5632 5632 5633 5633 5633 5634 5634 5635 5636 5637 5638 5638 5639 5640 5641 5642 5643 5644 5645 5645 5645 5645 5646 5647 5648 5648 5649 5649 5649 5649 5650 5651 5652 5653 5653 5654 5655 5656 5657 5657 5658 5659 5659 5660 5661 5661 5662 5662 5663
5615 5616 5616 5617 5618 5618 5619 5620 5620 5621 5622 5622 5623 5624 5625 5626 5627 5627 5628 5628 5629 5630 5631 5632 5632 5633 5633 5633 5634 5634 5635 5637 5638 5639 5640 5641 5642 5642 5643 5643 5643 5643 5644 5645 5645 5646 5646 5646 5646 5647 5648 5648 5649 5650 5651 5652 5653 5653 5654 5655 5656 5656 5657 5658 5658 5658 5659 5659 5660
5614 5615 5615 5616 5617 5617 5618 5619 5619 5620 5621 5621 5622 5622 5623 5623 5624 5625 5626 5626 5627 5628 5628 5629 5630 5631 5632 5632 5633 5633 5634 5634 5636 5638 5638 5639 5640 5641 5641 5641 5641 5641 5642 5642 5642 5642 5643 5643 5644 5644 5645 5646 5647 5648 5648 5649 5650 5651 5652 5653 5653 5653 5654 5655 5655 5656 5656 5656 5657
5613 5613 5614 5614 5615 5616 5617 5618 5618 5619 5619 5620 5620 5621 5621 5622 5623 5623 5624 5624 5625 5626 5627 5627 5628 5629 5629 5630 5631 5631 5632 5633 5633 5635 5637 5637 5638 5639 5639 5639 5639 5639 5639 5638 5639 5640 5640 5641 5642 5642 5643 5644 5645 5645 5646 5647 5648 5648 5649 5649 5650 5650 5651 5651 5652 5653 5653 5654 5654
5611 5612 5612 5613 5613 5614 5614 5615 5616 5616 5617 5618 5619 5619 5620 5620 5621 5621 5622 5623 5623 5624 5625 5625 5626 5626 5627 5628 5628 5629 5630 5631 5632 5633 5634 5634 5635 5636 5636 5637 5636 5636 5635 5636 5637 5637 5638 5638 5639 5640 5641 5642 5642 5643 5643 5644 5645 5645 5646 5646 5647 5647 5648 5648 5649 5650 5650 5651 5651
5610 5610 5611 5611 5611 5612 5612 5613 5613 5613 5614 5615 5616 5617 5618 5618 5619 5619 5620 5621 5621 5622 5623 5623 5624 5625 5625 5626 5626 5628 5629 5629 5630 5631 5631 5631 5632 5632 5633 5633 5633 5633 5633 5634 5634 5635 5636 5636 5637 5638 5638 5639 5639 5640 5641 5641 5642 5642 5643 5643 5644 5644 5645 5645 5646 5647 5647 5648 5648
5608 5609 5609 5610 5610 5610 5611 5611 5611 5612 5612 5613 5613 5614 5614 5615 5616 5616 5617 5618 5619 5620 5621 5621 5622 5623 5623 5624 5624 5625 5626 5628 5628 5628 5628 5628 5628 5629 5629 5629 5630 5630 5631 5631 5632 5633 5633 5634 5634 5635 5635 5636 5636 5637 5638 5638 5639 5639 5640 5640 5641 5642 5642 5643 5643 5643 5644 5644 5645
5606 5607 5608 5608 5608 5608 5609 5609 5609 5610 5610 5611 5611 5611 5612 5613 5613 5614 5614 5615 5616 5617 5618 5618 5619 5619 5620 5621 5621 5622 5623 5624 5624 5625 5625 5625 5626 5626 5626 5627 5627 5628 5628 5629 5629 5630 5630 5631 5631 5632 5632 5633 5633 5633 5634 5635 5635 5636 5636 5637 5638 5638 5639 5639 5640 5640 5640 5641 5641